G7ITT Weather Reports


time (UTC)temp
C
wind
direction
speed
KPH
gust
KPH
rain 1hr
cm
rain 24hr
cm
rain mn
cm
humidity
%
barometer
mb
20220124113003 4 176 0.0 1.6 0.00 0.00 0.00 64 1032.1
20220124112003 4 160 0.0 6.4 0.00 0.00 0.00 64 1032.2
20220124111002 4 151 1.6 8.0 0.00 0.00 0.00 64 1032.3
20220124110002 4 160 0.0 11.3 0.00 0.00 0.00 64 1032.3
20220124105002 4 150 0.0 4.8 0.00 0.00 0.00 64 1032.3
20220124104002 4 150 0.0 3.2 0.00 0.00 0.00 64 1032.2
20220124103003 3 150 0.0 6.4 0.00 0.00 0.00 64 1032.2
20220124102003 3 149 0.0 3.2 0.00 0.00 0.00 64 1032.3
20220124101003 3 149 0.0 3.2 0.00 0.00 0.00 64 1032.3
20220124100003 3 149 0.0 1.6 0.00 0.00 0.00 65 1032.3
20220124095003 3 0 0.0 0.0 0.00 0.00 0.00 65 1032.3
20220124094003 3 0 0.0 0.0 0.00 0.00 0.00 65 1032.3
20220124093003 3 0 0.0 0.0 0.00 0.00 0.00 65 1032.3
20220124092002 3 0 0.0 0.0 0.00 0.00 0.00 65 1032.2
20220124091002 3 0 0.0 0.0 0.00 0.00 0.00 65 1032.2
20220124090003 3 150 0.0 3.2 0.00 0.00 0.00 65 1032.1
20220124085003 3 0 0.0 0.0 0.00 0.00 0.00 66 1032.2
20220124084003 3 0 0.0 0.0 0.00 0.00 0.00 66 1031.9
20220124083003 3 0 0.0 0.0 0.00 0.00 0.00 66 1031.9
20220124082003 3 0 0.0 0.0 0.00 0.00 0.00 66 1031.8
20220124081003 3 0 0.0 0.0 0.00 0.00 0.00 66 1031.6
20220124080002 3 0 0.0 0.0 0.00 0.00 0.00 66 1031.5
20220124075003 3 0 0.0 0.0 0.00 0.00 0.00 66 1031.4
20220124074002 3 150 0.0 8.0 0.00 0.00 0.00 66 1031.3
20220124073002 3 175 1.6 6.4 0.00 0.00 0.00 66 1031.1
20220124072002 3 158 1.6 12.9 0.00 0.00 0.00 66 1031.1
20220124071003 3 159 0.0 6.4 0.00 0.00 0.00 67 1031.1
20220124070003 3 159 0.0 3.2 0.00 0.00 0.00 67 1031.0
20220124065003 3 157 0.0 6.4 0.00 0.00 0.00 67 1031.0
20220124064003 3 154 0.0 9.7 0.00 0.00 0.00 67 1030.9
20220124063003 3 154 1.6 6.4 0.00 0.00 0.00 67 1030.8
20220124062003 3 155 0.0 6.4 0.00 0.00 0.00 67 1030.6
20220124061003 3 155 0.0 3.2 0.00 0.00 0.00 67 1030.6
20220124060003 3 0 0.0 0.0 0.00 0.00 0.00 67 1030.5
20220124055003 3 159 0.0 1.6 0.00 0.00 0.00 67 1030.4
20220124054003 3 0 0.0 0.0 0.00 0.00 0.00 67 1030.6
20220124053003 3 159 0.0 1.6 0.00 0.00 0.00 67 1030.6
20220124052003 3 159 0.0 3.2 0.00 0.00 0.00 67 1030.7
20220124051003 3 150 0.0 11.3 0.00 0.00 0.00 67 1030.6
20220124050003 3 140 0.0 3.2 0.00 0.00 0.00 68 1030.7
20220124045003 3 154 0.0 8.0 0.00 0.00 0.00 68 1030.5
20220124044003 3 168 1.6 9.7 0.00 0.00 0.00 68 1030.3
20220124043003 3 167 1.6 8.0 0.00 0.00 0.00 68 1030.3
20220124042003 3 156 1.6 8.0 0.00 0.00 0.00 68 1030.4
20220124041003 3 171 0.0 8.0 0.00 0.00 0.00 68 1030.4
20220124040003 3 173 0.0 8.0 0.00 0.00 0.00 69 1030.4
20220124035003 3 162 1.6 9.7 0.00 0.00 0.00 69 1030.4
20220124034003 3 165 1.6 9.7 0.00 0.00 0.00 69 1030.5
20220124033004 3 172 1.6 6.4 0.00 0.00 0.00 69 1030.4
20220124032003 3 156 3.2 12.9 0.00 0.00 0.00 69 1030.4
20220124031003 3 168 1.6 9.7 0.00 0.00 0.00 70 1030.5
20220124030003 3 160 1.6 8.0 0.00 0.00 0.00 70 1030.5
20220124025004 3 158 3.2 11.3 0.00 0.00 0.00 70 1030.4
20220124024003 3 168 1.6 9.7 0.00 0.00 0.00 70 1030.4
20220124023003 3 168 1.6 9.7 0.00 0.00 0.00 71 1030.4
20220124022003 3 168 3.2 8.0 0.00 0.00 0.00 71 1030.5
20220124021003 3 166 0.0 11.3 0.00 0.00 0.00 71 1030.4
20220124020003 3 152 0.0 6.4 0.00 0.00 0.00 71 1030.5
20220124015003 3 153 0.0 6.4 0.00 0.00 0.00 72 1030.5
20220124014003 3 156 1.6 9.7 0.00 0.00 0.00 72 1030.6
20220124013003 3 161 0.0 12.9 0.00 0.00 0.00 72 1030.6
20220124012003 3 162 0.0 8.0 0.00 0.00 0.00 72 1030.8
20220124011003 3 163 0.0 8.0 0.00 0.00 0.00 72 1030.7
20220124010004 3 163 1.6 8.0 0.00 0.00 0.00 72 1030.8
20220124005004 3 164 0.0 6.4 0.00 0.00 0.00 73 1030.8
20220124004004 4 161 1.6 11.3 0.00 0.00 0.00 73 1030.7
20220124003004 4 150 1.6 9.7 0.00 0.00 0.00 73 1030.7
20220124002004 4 156 0.0 8.0 0.00 0.00 0.00 73 1030.7
20220124001004 4 154 1.6 9.7 0.00 0.00 0.00 73 1030.5
20220124000004 4 142 1.6 8.0 0.00 0.00 0.00 73 1030.5
20220123235004 4 157 1.6 11.3 0.00 0.00 0.00 73 1030.6
20220123234004 4 153 0.0 6.4 0.00 0.00 0.00 73 1030.5
20220123233004 4 154 0.0 3.2 0.00 0.00 0.00 73 1030.5
20220123232004 4 152 1.6 8.0 0.00 0.00 0.00 73 1030.5
20220123231004 4 153 1.6 6.4 0.00 0.00 0.00 73 1030.6
20220123230004 4 153 0.0 9.7 0.00 0.00 0.00 74 1030.6
20220123225003 4 152 0.0 4.8 0.00 0.00 0.00 74 1030.6
20220123224003 4 152 0.0 3.2 0.00 0.00 0.00 74 1030.5
20220123223004 4 152 0.0 8.0 0.00 0.00 0.00 74 1030.5
20220123222004 4 151 0.0 6.4 0.00 0.00 0.00 74 1030.4
20220123221004 4 150 0.0 3.2 0.00 0.00 0.00 74 1030.5
20220123220004 4 151 0.0 8.0 0.00 0.00 0.00 75 1030.5
20220123215004 4 151 0.0 4.8 0.00 0.00 0.00 75 1030.4
20220123214004 4 0 0.0 0.0 0.00 0.00 0.00 75 1030.4
20220123213004 4 155 1.6 8.0 0.00 0.00 0.00 75 1030.5
20220123212003 4 156 3.2 12.9 0.00 0.00 0.00 75 1030.5
20220123211004 4 158 3.2 11.3 0.00 0.00 0.00 75 1030.5
20220123210004 4 160 3.2 11.3 0.00 0.00 0.00 75 1030.5
20220123205004 4 154 3.2 12.9 0.00 0.00 0.00 75 1030.5
20220123204004 4 159 0.0 6.4 0.00 0.00 0.00 75 1030.5
20220123203004 4 139 0.0 4.8 0.00 0.00 0.00 75 1030.5
20220123202004 4 138 0.0 4.8 0.00 0.00 0.00 75 1030.4
20220123201004 4 138 0.0 4.8 0.00 0.00 0.00 75 1030.5
20220123200004 4 138 0.0 3.2 0.00 0.00 0.00 75 1030.4
20220123195003 4 0 0.0 0.0 0.00 0.00 0.00 75 1030.5
20220123194004 4 137 0.0 1.6 0.00 0.00 0.00 75 1030.6
20220123193004 4 137 0.0 1.6 0.00 0.00 0.00 75 1030.6
20220123192004 3 0 0.0 0.0 0.00 0.00 0.00 75 1030.7
20220123191004 3 0 0.0 0.0 0.00 0.00 0.00 76 1030.8
20220123190004 3 138 0.0 3.2 0.00 0.00 0.00 76 1030.8
20220123185004 3 0 0.0 0.0 0.00 0.00 0.00 76 1030.7
20220123184004 3 0 0.0 0.0 0.00 0.00 0.00 76 1030.8
20220123183005 3 0 0.0 0.0 0.00 0.00 0.00 76 1030.8
20220123182004 3 0 0.0 0.0 0.00 0.00 0.00 76 1030.7
20220123181004 3 0 0.0 0.0 0.00 0.00 0.00 77 1030.7
20220123180004 3 0 0.0 0.0 0.00 0.00 0.00 77 1030.7
20220123175004 3 0 0.0 0.0 0.00 0.00 0.00 77 1030.7
20220123174004 3 0 0.0 0.0 0.00 0.00 0.00 77 1030.7
20220123173004 3 0 0.0 0.0 0.00 0.00 0.00 77 1030.6
20220123172004 3 0 0.0 0.0 0.00 0.00 0.00 77 1030.6
20220123171004 3 137 0.0 1.6 0.00 0.00 0.00 77 1030.6
20220123170004 4 0 0.0 0.0 0.00 0.00 0.00 77 1030.5
20220123165004 4 137 0.0 4.8 0.00 0.00 0.00 76 1030.4
20220123164004 4 138 0.0 3.2 0.00 0.00 0.00 76 1030.5
20220123163004 4 140 0.0 6.4 0.00 0.00 0.00 76 1030.5
20220123162004 4 161 0.0 6.4 0.00 0.00 0.00 76 1030.4
20220123161004 4 175 1.6 8.0 0.00 0.00 0.00 76 1030.5
20220123160004 5 163 3.2 8.0 0.00 0.00 0.00 76 1030.5
20220123155004 5 164 3.2 9.7 0.00 0.00 0.00 76 1030.5
20220123154004 5 167 1.6 9.7 0.00 0.00 0.00 76 1030.5
20220123153004 5 166 3.2 11.3 0.00 0.00 0.00 76 1030.5
20220123152004 5 168 3.2 9.7 0.00 0.00 0.00 76 1030.5
20220123151004 5 165 4.8 14.5 0.00 0.00 0.00 76 1030.5
20220123150004 5 160 4.8 16.1 0.00 0.00 0.00 75 1030.6
20220123145004 5 167 4.8 12.9 0.00 0.00 0.00 75 1030.6
20220123144004 5 162 6.4 14.5 0.00 0.00 0.00 75 1030.8
20220123143005 5 162 6.4 12.9 0.00 0.00 0.00 75 1030.9
20220123142004 5 163 6.4 14.5 0.00 0.00 0.00 75 1030.9
20220123141002 5 163 4.8 14.5 0.00 0.00 0.00 74 1031.0
20220123140003 5 162 4.8 11.3 0.00 0.00 0.00 73 1031.1
20220123135003 5 161 4.8 17.7 0.00 0.00 0.00 73 1031.1
20220123134002 5 161 4.8 12.9 0.00 0.00 0.00 72 1031.2
20220123133003 6 158 4.8 14.5 0.00 0.00 0.00 72 1031.2
20220123132002 5 160 4.8 16.1 0.00 0.00 0.00 71 1031.2
20220123131003 5 161 4.8 12.9 0.00 0.00 0.00 70 1031.3
20220123130002 5 156 6.4 16.1 0.00 0.00 0.00 70 1031.5
20220123125002 5 162 3.2 14.5 0.00 0.00 0.00 69 1031.6
20220123124003 5 177 3.2 11.3 0.00 0.00 0.00 68 1031.7
20220123123003 6 159 3.2 14.5 0.00 0.00 0.00 68 1031.8
20220123122002 5 157 3.2 9.7 0.00 0.00 0.00 67 1032.0
20220123121003 5 166 4.8 11.3 0.00 0.00 0.00 66 1032.0
20220123120002 5 152 4.8 19.3 0.00 0.00 0.00 65 1031.9
20220123115002 6 150 3.2 11.3 0.00 0.00 0.00 65 1032.0
20220123114003 5 155 3.2 11.3 0.00 0.00 0.00 64 1032.1